Weather in Yelkino

Russia / Novgorod Oblast     58°39′17″N   36°01′37″E
temp.,
°C
wind,
m/s
gust,
m/s
humid.,
%
clouds,
%
prec.,
mm/h
press.,
hPa
HPBL,
m
26 january, tue
tue2600:00+1sse41097100 0.0 1010422
03:00+1sse4998100 0.1 1010300
06:00+1sse41098100 0.0 1010439
09:00+1se41094100 0.0 1009449
12:00+1se41095100 0.0 1008553
15:00+1se5995100 0.0 1007637
18:00+1ese41092100 0.0 1006651
21:00+1ese41198100 0.3 1003570
27 january, wed
wed2700:00+1se41098100 0.9 1002658
03:00−1sse41189100 1.3 1002804
06:00−2se4119596 0.2 1001748
09:00−1sse4119398 0.6 999750
12:000sse4889100 0.1 999812
15:00−1sse2596100 0.4 999384
18:00−3sw229784 0.1 100135
21:00−4sw279763 0.1 1003162
28 january, thu
thu2800:00−4sw269755 0.0 1006160
03:00−6sw229651 0.0 100723
06:00−6ssw129614 0.0 100921
09:00−7sse229647 0.0 101022
12:00−4se239296 0.0 1011188
15:00−3ese259397 0.0 1010283
18:00−4e3796100 0.0 1009258
21:00−4e3895100 0.4 1008357
29 january, fri
fri2900:00−3e4996100 1.3 1007361
03:00−1ese3997100 2.3 1005298
06:00+1ese3799100 0.2 1004226
09:00+1se3798100 0.3 1003264
12:00+1se3999100 0.1 1003460
15:000e4895100 0.6 1001496
18:00−2e5992100 0.4 1000513
21:00−5e51090100 0.5 999566
30 january, sat
sat3000:00−6e4991100 0.1 998503
03:00−7ese4993100 0.3 997479
06:00−7e3793100 0.4 995429
09:00−7e3893100 0.8 994452
12:00−6ese3693100 0.3 993398
15:00−5ese3695100 1.3 992363
18:00−4ese3896100 1.6 992400
21:00−3sse41094100 2.7 992569